Weather History for Windsor Locks, CT

Change the Weather History Date:

Saturday, December 1, 2012

  Actual Average Record
Temperature  
Mean Temperature 30 °F 37 °F  
Max Temperature 31 °F 45 °F 70 °F (2001)
Min Temperature 28 °F 29 °F 9 °F (1976)
Degree Days  
Heating Degree Days 35 28  
Month to date heating degree days 35 28  
Since 1 July heating degree days 1160 1235  
Cooling Degree Days 0 0  
Month to date cooling degree days 0 0  
Year to date cooling degree days 981 756  
Moisture  
Dew Point 23 °F    
Average Humidity 84    
Maximum Humidity 92    
Minimum Humidity 75    
Precipitation  
Precipitation 0.01 in 0.12 in 1.43 in (2010)
Month to date precipitation 0.01 0.12  
Year to date precipitation 33.90 42.53  
Snow  
Snow 0.20 in 0.10 in 1.90 in (1925)
Month to date snowfall 0.2 0.1  
Since 1 July snowfall 3.1 2.1  
Snow Depth -    
Sea Level Pressure  
Sea Level Pressure 30.54 in    
Wind  
Wind Speed 7 mph (North)    
Max Wind Speed 12 mph    
Max Gust Speed 15 mph    
Visibility 6 miles    
Events Snow    
T = Trace of Precipitation, MM = Missing Value Source: NWS Daily Summary

Daily Weather History Graph

Daily Weather History Graph

Search for Another Location

Airport:

Trip Planner

Search our weather history database for the weather conditions in past years. The results will help you decide how hot, cold, wet, or windy it might be!

Date:

Astronomy

Dec. 01, 2012 Rise Set
Actual Time 6:59 AM EST 4:20 PM EST
Civil Twilight 6:28 AM EST 4:51 PM EST
Nautical Twilight 5:53 AM EST 5:26 PM EST
Astronomical Twilight 5:20 AM EST 5:59 PM EST
Moon 7:08 PM EST (12/1) 9:09 AM EST (12/1)
Length of Visible Light 10h 23m
Length of Day
9h 20m
Waning Gibbous, 92% of the Moon is Illuminated
Dec 1
Waning Gibbous
Dec 6
Last Quarter
Dec 13
New
Dec 20
First Quarter
Dec 28
Full

Hourly Weather History & Observations

Time (EST) Temp. Windchill Dew Point Humidity Pressure Visibility Wind Dir Wind Speed Gust Speed Precip Events Conditions
12:51 AM 30.9 °F 25.2 °F 8.1 °F 38% 30.52 in 10.0 mi North 5.8 mph - 0.00 in   Overcast
1:51 AM 30.9 °F 25.2 °F 10.0 °F 42% 30.55 in 9.0 mi North 5.8 mph - 0.00 in Snow Light Snow
2:51 AM 28.9 °F 22.8 °F 16.0 °F 58% 30.55 in 2.5 mi NNE 5.8 mph - 0.00 in Snow Light Snow
3:18 AM 28.4 °F 19.7 °F 21.2 °F 74% 30.54 in 3.0 mi NNE 9.2 mph - 0.00 in Snow Light Snow
3:51 AM 28.0 °F 21.7 °F 21.9 °F 78% 30.54 in 6.0 mi North 5.8 mph - 0.00 in Snow Light Snow
4:51 AM 28.0 °F 21.7 °F 23.0 °F 81% 30.53 in 9.0 mi NNE 5.8 mph - 0.00 in Snow Light Snow
5:51 AM 28.0 °F 20.0 °F 21.9 °F 78% 30.55 in 10.0 mi North 8.1 mph - 0.00 in Snow Light Snow
6:51 AM 28.0 °F 19.3 °F 21.9 °F 78% 30.58 in 10.0 mi NNE 9.2 mph - 0.00 in   Overcast
7:51 AM 28.0 °F 20.8 °F 21.9 °F 78% 30.60 in 10.0 mi North 6.9 mph - N/A   Overcast
8:51 AM 28.9 °F 21.1 °F 23.0 °F 78% 30.60 in 10.0 mi North 8.1 mph - 0.00 in Snow Light Snow
9:51 AM 28.9 °F 20.4 °F 23.0 °F 78% 30.60 in 10.0 mi NNE 9.2 mph - 0.00 in Snow Light Snow
10:51 AM 28.9 °F 20.4 °F 24.1 °F 82% 30.58 in 9.0 mi North 9.2 mph - 0.01 in   Overcast
11:51 AM 28.9 °F 20.4 °F 24.1 °F 82% 30.56 in 10.0 mi North 9.2 mph - N/A   Overcast
12:51 PM 30.0 °F 24.1 °F 24.1 °F 79% 30.55 in 10.0 mi North 5.8 mph - N/A   Overcast
1:51 PM 30.0 °F 24.1 °F 25.0 °F 82% 30.53 in 8.0 mi North 5.8 mph - N/A   Overcast
2:51 PM 30.0 °F 24.1 °F 26.1 °F 85% 30.53 in 10.0 mi North 5.8 mph - N/A   Overcast
3:16 PM 30.2 °F 22.6 °F 26.6 °F 86% 30.52 in 7.0 mi North 8.1 mph - N/A   Overcast
3:51 PM 30.0 °F 23.2 °F 26.1 °F 85% 30.53 in 7.0 mi North 6.9 mph - N/A   Overcast
4:51 PM 30.0 °F 24.1 °F 27.0 °F 88% 30.54 in 5.0 mi North 5.8 mph - N/A   Overcast
5:07 PM 30.2 °F 23.4 °F 26.6 °F 86% 30.53 in 4.0 mi North 6.9 mph - 0.00 in   Light Freezing Drizzle
5:28 PM 30.2 °F 23.4 °F 26.6 °F 86% 30.53 in 2.5 mi North 6.9 mph - 0.00 in   Light Freezing Drizzle
5:51 PM 30.0 °F 23.2 °F 28.0 °F 92% 30.54 in 2.0 mi North 6.9 mph - 0.00 in   Light Freezing Drizzle
6:51 PM 30.0 °F 25.2 °F 28.0 °F 92% 30.53 in 2.5 mi North 4.6 mph - 0.00 in   Light Freezing Drizzle
7:51 PM 30.0 °F 23.2 °F 28.0 °F 92% 30.53 in 2.5 mi North 6.9 mph - 0.00 in   Light Freezing Drizzle
8:51 PM 30.0 °F 23.2 °F 28.9 °F 96% 30.52 in 2.0 mi North 6.9 mph - 0.00 in   Light Freezing Drizzle
9:51 PM 30.9 °F 26.2 °F 28.9 °F 92% 30.50 in 2.0 mi North 4.6 mph - 0.00 in   Light Freezing Drizzle
10:51 PM 30.9 °F 24.3 °F 28.9 °F 92% 30.49 in 2.5 mi North 6.9 mph - 0.00 in   Light Freezing Drizzle
11:51 PM 30.9 °F 25.2 °F 30.0 °F 96% 30.48 in 2.0 mi North 5.8 mph - 0.00 in   Light Freezing Drizzle